CAPE
0 0 0 0 0 0 0 0 0 0 0 0 0 1 0 0 0 0 0 1 1 0 0 0 1 0 8 0 0 0 5 15 28 107 76 39 67 130 12 632 45 36 109 83
0 0 0 0 0 0 0 0 0 0 0 0 0 0 0 0 0 0 0 3 1 0 0 0 0 0 0 3 0 0 2 17 35 108 176 103 124 23 2 11 210 66 242 136
0 0 0 0 0 0 0 0 0 0 0 0 0 0 0 0 0 0 1 4 2 0 0 3 0 1 0 0 0 0 36 21 11 185 214 68 98 37 13 12 29 31 84 56
0 0 0 0 0 0 0 0 0 0 0 0 0 0 0 0 0 0 0 6 0 2 1 0 0 0 0 0 0 0 8 8 8 9 0 0 6 26 17 3 3 46 377 157
0 0 0 0 0 0 0 0 0 0 0 0 0 0 0 0 0 0 0 0 0 0 0 1 2 8 0 0 0 0 1 3 0 0 4 43 5 7 7 21 10 6 10 2
0 0 0 0 0 0 0 0 0 0 0 0 0 0 0 0 0 0 0 0 0 0 1 1 0 0 0 1 3 4 9 3 7 0 26 8 21 39 7 30 19 34 67 34
0 0 0 0 0 0 0 0 0 0 0 0 0 0 0 0 0 0 0 0 0 0 0 0 0 0 0 0 1 6 9 5 4 4 3 58 5 0 0 0 0 0 0 0
0 0 0 0 0 0 0 0 0 0 0 0 0 0 0 0 0 0 0 2 3 0 5 7 0 0 35 21 7 17 5 8 15 20 31 28 4 0 0 0 0 0 0 0
0 0 0 0 0 0 0 1 2 0 0 0 0 0 0 0 0 0 0 0 0 8 16 10 7 6 6 1 5 19 23 9 29 15 27 36 13 0 0 0 0 0 0 0
0 0 0 0 0 0 0 3 8 0 0 0 0 0 0 0 1 0 0 0 1 9 22 16 10 10 1 7 10 11 25 8 7 11 21 31 20 0 0 1 0 0 0 0
0 0 0 0 0 0 0 6 7 1 0 0 0 0 0 1 1 0 2 1 20 15 16 22 14 11 11 8 3 12 20 20 9 12 57 33 5 2 2 2 0 0 0 0
0 0 0 0 0 0 0 0 3 6 2 0 0 0 0 0 0 2 4 13 5 17 14 24 20 22 16 15 15 11 24 20 21 6 18 61 3 0 0 0 0 0 0 0
0 0 0 0 0 0 0 0 5 9 2 0 0 0 0 0 0 0 1 3 1 5 45 28 23 24 25 26 12 6 16 7 43 22 11 11 7 0 0 0 0 0 0 0
0 0 0 0 0 0 0 0 4 10 5 1 0 0 0 0 0 0 0 1 2 15 33 28 44 23 22 32 20 11 4 7 15 15 10 5 2 0 0 0 0 0 0 0
0 0 0 0 0 0 0 4 9 3 6 4 0 0 0 0 0 0 1 5 15 8 15 35 30 17 36 43 27 7 11 19 31 15 0 7 0 0 0 0 0 0 0 0
0 0 0 0 0 0 4 8 29 10 0 4 1 0 0 0 0 0 3 15 10 16 7 15 14 12 43 51 24 0 2 2 6 1 0 0 0 0 0 0 0 0 0 0
0 0 0 0 0 0 0 6 22 9 25 17 4 0 0 0 0 3 8 8 3 6 6 16 16 18 37 42 7 0 1 1 0 0 0 0 0 0 0 0 0 0 0 0
0 0 0 0 0 1 6 2 5 22 19 8 7 0 0 0 21 36 7 5 9 18 21 24 32 35 35 22 0 0 0 4 0 0 0 0 0 0 0 0 0 0 0 0
9 0 0 1 4 6 15 0 14 22 12 12 3 2 6 0 20 32 23 6 11 3 43 24 28 19 20 0 1 0 1 3 1 0 0 0 0 0 0 0 0 0 0 0
0 1 2 52 8 0 8 4 18 20 19 14 5 2 3 3 9 9 10 17 4 29 17 17 32 14 1 3 1 4 3 7 2 0 0 0 0 0 0 0 0 0 0 0
12 14 9 0 0 25 19 13 22 13 13 9 3 3 3 7 11 14 17 30 22 25 30 33 27 24 5 7 10 14 2 0 0 0 0 0 0 0 0 0 0 0 0 0
6 3 2 4 7 14 22 21 25 7 1 6 4 4 3 12 6 22 32 13 20 13 26 37 18 30 6 11 13 7 1 0 0 0 0 0 0 0 0 0 0 0 0 0
0 0 13 4 6 3 7 4 7 4 3 5 27 27 7 8 12 28 18 1 12 9 42 30 18 10 10 7 15 5 0 0 0 0 0 0 0 0 0 0 0 0 0 0
5 0 0 0 3 0 1 8 13 6 0 6 26 32 33 14 37 23 3 17 12 20 28 32 7 15 15 1 20 6 0 0 0 0 0 0 0 0 0 0 0 0 0 0
1 0 0 0 0 0 3 0 0 2 5 19 33 32 21 39 32 29 2 3 4 20 34 72 45 27 15 14 21 0 0 0 0 0 0 0 0 0 0 0 0 0 0 0
0 0 0 0 0 0 0 0 0 17 22 20 24 35 27 33 35 14 7 6 4 71 91 89 1 6 16 31 3 0 0 0 0 0 0 0 0 0 0 0 0 0 0 0
5 0 0 0 0 0 0 0 9 22 1 6 30 30 25 38 36 19 15 41 50 67 112 64 20 0 0 1 3 2 0 0 0 0 0 0 0 0 0 0 0 0 0 0
CIN
0 0 0 0 0 0 0 0 0 0 0 0 0 0 0 0 0 0 0 0 0 0 0 0 0 0 0 0 0 0 -3 0 0 0 -9 -30 -13 -1 -19 0 -1 0 -1 0
0 0 0 0 0 0 0 0 0 0 0 0 0 0 0 0 0 0 0 0 0 0 0 0 0 0 0 0 0 0 0 -1 0 0 0 -5 0 -6 0 -1 0 -1 -1 -1
0 0 0 0 0 0 0 0 0 0 0 0 0 0 0 0 0 0 0 0 0 0 0 0 0 0 0 0 0 0 -2 0 0 -11 0 -2 0 -1 -1 0 0 0 -1 0
0 0 0 0 0 0 0 0 0 0 0 0 0 0 0 0 0 0 0 0 0 0 0 0 0 0 0 0 0 0 0 0 0 0 0 0 -9 -7 -2 0 0 0 0 0
0 0 0 0 0 0 0 0 0 0 0 0 0 0 0 0 0 0 0 0 0 0 0 0 0 0 0 0 0 0 0 0 0 0 -4 0 -23 -14 -8 -7 -2 0 0 -3
0 0 0 0 0 0 0 0 0 0 0 0 0 0 0 0 0 0 0 0 0 0 0 0 0 0 0 0 0 0 0 0 0 0 -9 0 -16 -40 -7 -2 -2 -1 -3 -3
0 0 0 0 0 0 0 0 0 0 0 0 0 0 0 0 0 0 0 0 0 0 0 0 0 0 0 0 0 0 0 0 0 0 0 -3 -1 0 0 0 0 0 0 0
0 0 0 0 0 0 0 0 0 0 0 0 0 0 0 0 0 0 0 0 0 0 0 0 0 0 0 0 0 0 0 0 0 0 -2 -3 -1 0 0 0 0 0 0 0
0 0 0 0 0 0 0 0 0 0 0 0 0 0 0 0 0 0 0 0 0 0 0 0 0 0 0 0 0 0 0 0 0 -1 0 0 -1 0 0 0 0 0 0 0
0 0 0 0 0 0 0 0 0 0 0 0 0 0 0 0 0 0 0 0 0 0 0 0 0 0 0 0 0 0 0 0 0 0 0 -2 -1 0 0 0 0 0 0 0
0 0 0 0 0 0 0 0 0 0 0 0 0 0 0 0 0 0 0 0 -1 0 0 0 0 0 0 0 0 0 0 0 0 0 0 0 -12 -7 -7 -2 0 0 0 0
0 0 0 0 0 0 0 0 0 0 0 0 0 0 0 0 0 0 0 0 0 0 0 0 0 0 0 0 0 0 0 0 0 0 0 -5 -40 0 0 0 0 0 0 0
0 0 0 0 0 0 0 0 0 0 0 0 0 0 0 0 0 0 0 0 0 0 0 0 0 0 0 0 0 0 0 0 0 0 0 -4 -16 0 0 0 0 0 0 0
0 0 0 0 0 0 0 0 0 0 0 0 0 0 0 0 0 0 0 0 0 0 0 0 0 0 0 0 0 0 0 0 0 0 0 -24 -22 0 0 0 0 0 0 0
0 0 0 0 0 0 0 0 0 0 0 0 0 0 0 0 0 0 0 0 0 0 0 0 0 0 0 0 0 0 0 0 0 0 0 0 0 0 0 0 0 0 0 0
0 0 0 0 0 0 0 0 0 0 0 0 0 0 0 0 0 0 0 0 0 -1 -1 0 0 0 0 0 0 0 0 0 0 0 0 0 0 0 0 0 0 0 0 0
0 0 0 0 0 0 0 0 0 -1 0 0 0 0 0 0 0 0 0 0 0 0 0 0 0 0 0 0 0 0 0 0 0 0 0 0 0 0 0 0 0 0 0 0
0 0 0 0 0 0 0 -1 -2 -1 0 0 0 0 0 0 0 0 0 0 0 0 0 0 0 0 0 0 0 0 0 0 0 0 0 0 0 0 0 0 0 0 0 0
0 0 0 0 0 0 0 -14 -2 0 0 0 0 0 0 0 0 0 -1 -1 -1 -2 0 0 -1 0 0 0 0 0 0 0 0 0 0 0 0 0 0 0 0 0 0 0
0 0 0 0 0 0 -1 0 0 0 0 0 0 0 0 0 0 0 -4 0 -1 0 0 0 0 0 0 0 -1 0 0 0 0 0 0 0 0 0 0 0 0 0 0 0
0 0 0 0 0 0 0 0 0 0 0 0 0 0 0 0 0 0 0 0 0 0 0 0 0 0 0 0 0 0 0 0 0 0 0 0 0 0 0 0 0 0 0 0
-2 0 0 0 0 0 0 0 0 0 0 0 0 0 0 0 0 0 0 -1 0 0 -1 -1 0 0 0 0 0 0 0 0 0 0 0 0 0 0 0 0 0 0 0 0
0 0 0 0 0 0 0 0 0 0 0 0 0 0 0 0 0 0 0 0 0 -1 0 0 0 0 0 0 0 0 0 0 0 0 0 0 0 0 0 0 0 0 0 0
0 0 0 0 0 0 0 0 0 0 0 0 0 0 0 -1 0 0 0 0 0 -1 0 -1 -2 0 0 0 0 0 0 0 0 0 0 0 0 0 0 0 0 0 0 0
0 0 0 0 0 0 0 0 0 -1 -3 0 0 0 0 0 0 0 0 0 -3 -1 0 0 0 0 0 0 0 0 0 0 0 0 0 0 0 0 0 0 0 0 0 0
0 0 0 0 0 0 0 0 0 -3 -4 -8 -1 0 0 0 0 0 -7 -9 -13 -4 -1 -2 -10 -2 0 0 0 0 0 0 0 0 0 0 0 0 0 0 0 0 0 0
0 0 0 0 0 0 0 0 0 -2 -1 0 0 -1 0 -1 0 0 -1 -9 -2 -15 -6 -23 -12 -2 0 -2 -32 -29 0 0 0 0 0 0 0 0 0 0 0 0 0 0
Wind_Speed
17 18 20 22 22 22 4 2 4 11 11 6 5 6 4 1 4 3 3 2 3 5 7 5 4 5 4 10 18 11 6 6 6 12 3 3 4 1 4 3 3 1 4 3
16 18 20 21 21 17 3 4 4 7 7 6 7 8 8 5 2 6 3 3 5 6 6 5 5 5 8 8 16 11 8 3 6 5 5 3 3 3 1 1 0 6 4 0
16 18 20 22 21 12 2 2 3 6 8 7 10 9 5 4 5 4 3 4 2 9 5 2 7 11 5 17 14 12 6 4 4 7 13 13 10 10 5 4 3 1 5 11
16 18 20 21 18 10 2 5 4 3 4 7 8 4 2 4 3 3 5 3 7 7 5 13 3 7 14 13 1 6 7 8 11 14 17 17 19 19 12 11 8 6 1 3
16 17 18 21 21 9 5 3 3 3 6 3 5 3 3 3 3 3 2 4 8 7 8 12 20 17 15 9 7 7 8 9 13 14 12 11 17 14 16 18 15 16 15 16
15 17 20 22 22 5 4 3 3 1 1 4 0 3 3 2 4 3 2 6 12 11 9 15 20 21 21 20 19 17 11 6 7 7 7 16 7 6 9 9 13 12 12 8
14 16 17 21 23 14 5 3 0 1 4 2 4 4 0 2 3 4 5 8 8 9 19 23 19 20 19 15 15 13 9 8 5 7 12 4 3 6 4 5 6 6 12 11
12 14 16 18 18 16 8 3 2 2 4 4 5 4 1 3 3 7 6 3 8 13 14 9 9 3 6 6 2 8 14 7 5 4 7 10 3 10 7 6 8 5 5 3
11 13 14 15 17 12 7 8 4 3 4 3 4 3 1 3 3 2 1 6 8 6 4 4 5 4 6 4 6 5 8 11 5 4 5 1 7 13 5 3 3 10 7 2
10 11 12 12 13 12 6 5 7 2 3 4 3 1 0 1 2 3 1 6 4 4 4 4 4 4 5 4 7 7 3 4 8 5 5 7 8 15 4 5 8 12 9 2
9 10 10 11 10 11 4 5 7 4 2 4 4 3 4 2 2 3 5 5 2 3 3 4 3 4 4 5 8 5 5 3 4 5 6 4 17 11 12 11 10 8 8 5
8 9 9 10 7 7 6 4 4 4 1 4 1 4 7 7 6 4 1 4 1 3 3 2 4 5 3 5 5 3 3 3 5 5 4 10 20 9 12 11 9 7 7 7
8 8 9 8 7 7 7 4 5 1 1 2 3 3 2 6 12 9 4 1 3 4 4 3 3 6 3 5 5 3 3 10 5 6 6 13 13 11 15 15 11 10 5 8
9 9 8 7 6 5 3 3 3 3 2 2 5 1 5 2 6 12 13 3 3 5 4 3 4 5 4 5 9 12 10 7 5 11 13 17 8 20 22 20 12 7 3 8
10 9 8 6 4 4 0 1 3 3 3 4 4 8 3 3 8 9 10 10 9 5 3 4 4 3 7 7 9 9 4 4 4 5 19 11 20 24 25 14 9 3 6 11
10 9 8 6 4 1 2 1 3 2 2 2 3 3 3 1 2 7 8 7 6 3 3 4 4 13 5 5 7 5 8 11 15 14 20 20 24 23 14 15 6 2 7 10
10 9 8 6 3 1 2 4 3 3 1 2 3 2 3 1 2 3 4 5 3 4 4 5 8 10 4 5 12 11 15 16 15 16 16 16 12 19 15 8 4 7 10 10
11 9 8 6 4 2 2 2 6 2 2 1 3 3 2 2 2 2 4 3 3 5 4 3 6 3 4 7 12 9 14 15 17 8 8 16 18 10 4 2 5 9 10 11
12 10 7 3 1 1 3 3 2 3 3 3 1 4 3 1 2 1 2 4 4 3 4 4 3 4 7 11 13 15 17 15 20 20 19 17 13 8 3 2 3 7 8 10
14 3 2 1 2 4 8 1 0 2 2 2 2 5 4 3 2 2 2 3 3 4 3 1 3 6 11 14 14 18 21 20 16 15 17 10 6 8 8 5 1 5 7 8
2 3 2 3 0 3 2 1 2 2 3 3 3 5 6 1 4 4 1 3 2 4 3 3 2 3 5 17 19 19 14 14 13 14 16 14 13 10 7 7 3 4 7 8
4 4 3 2 2 1 3 2 2 4 2 4 3 3 4 3 3 4 2 3 2 4 1 3 3 5 17 19 20 20 16 13 9 9 10 10 10 8 6 4 3 4 6 8
3 2 2 2 2 3 4 5 3 2 3 3 3 2 3 4 4 4 1 3 4 6 3 3 2 11 16 20 19 19 17 13 8 3 3 4 6 6 5 4 3 1 6 8
2 4 4 4 4 5 4 3 2 3 2 4 4 4 3 1 3 1 3 3 3 4 3 3 5 11 17 18 17 16 17 16 14 12 9 5 4 2 2 3 3 1 4 6
4 4 5 7 3 2 2 0 2 2 4 5 4 4 3 3 3 3 3 3 4 4 4 4 7 14 12 18 19 18 16 14 12 12 10 9 9 7 6 4 3 3 1 5
4 4 4 3 4 5 6 5 4 1 2 2 3 4 4 5 3 3 5 4 4 1 3 3 5 10 12 17 18 16 14 13 12 11 11 9 8 8 7 7 7 4 3 3
6 5 6 6 3 3 4 4 4 3 2 3 3 4 5 1 4 4 4 4 4 1 2 3 2 4 6 15 19 14 15 11 12 12 12 12 10 10 10 11 9 7 5 2
Wind_Direction
14 9 5 359 355 347 351 356 49 357 327 50 48 64 89 76 62 61 74 29 43 356 338 327 337 336 322 10 348 334 67 295 280 285 63 337 310 309 158 257 137 236 297 288
18 9 5 0 359 6 337 54 7 4 320 80 74 107 94 66 65 35 24 43 10 357 330 321 315 330 344 360 339 351 344 313 297 222 164 171 300 19 61 134 307 201 258 44
20 12 7 3 0 3 334 84 61 42 45 43 92 115 78 108 46 68 9 15 346 341 330 284 298 302 319 335 318 309 245 273 266 318 319 310 292 278 259 199 236 191 239 278
22 17 9 3 0 5 333 22 66 349 47 56 81 80 85 87 69 22 359 161 33 360 315 313 258 318 314 318 310 312 354 274 292 297 286 275 277 274 266 216 240 220 232 228
27 20 11 7 7 355 72 98 126 95 92 78 87 68 69 49 60 328 45 332 337 317 289 288 294 297 297 289 292 336 345 284 313 294 291 287 289 272 257 240 247 240 272 291
34 27 21 15 15 328 79 62 96 271 129 101 35 51 83 65 332 107 348 338 317 312 341 310 286 279 275 267 275 287 294 285 331 271 304 314 285 264 271 259 231 246 256 234
43 37 32 28 27 31 73 70 55 109 104 104 87 157 278 290 347 299 302 309 293 338 320 297 276 255 253 255 262 238 244 245 273 285 305 229 356 9 314 302 289 243 261 281
56 45 41 38 38 35 65 57 4 64 107 101 150 180 226 272 273 272 299 332 332 315 302 302 324 313 181 117 218 215 213 240 273 269 294 286 82 30 8 346 77 28 336 41
73 56 47 45 40 36 69 49 6 46 132 126 114 161 184 316 324 274 323 338 332 318 286 298 337 349 327 344 5 102 173 252 312 317 272 257 41 8 360 250 114 12 355 66
88 70 53 50 48 46 64 60 10 30 98 135 196 166 289 274 287 287 341 343 325 318 324 317 338 322 328 324 322 331 190 196 246 276 284 282 352 344 322 356 0 346 346 281
104 88 70 57 53 41 50 69 29 358 62 137 204 198 212 200 255 307 22 267 157 336 352 325 351 305 356 284 302 308 291 300 197 195 245 242 15 344 3 338 318 352 19 111
123 106 90 71 60 35 359 87 53 11 330 31 259 261 272 266 279 293 200 355 334 3 303 335 302 289 294 316 297 203 265 16 299 269 281 332 320 326 358 339 314 350 10 140
135 120 104 84 78 59 21 50 25 18 355 206 211 181 147 223 230 228 269 178 300 253 354 308 277 272 281 292 287 301 260 292 239 305 232 317 312 12 355 347 327 338 325 160
142 129 116 101 88 87 28 35 37 345 17 324 107 191 284 256 204 205 221 258 219 299 297 284 276 284 292 285 302 293 269 277 272 267 276 322 192 343 342 328 321 323 260 163
143 136 125 117 103 113 143 30 26 8 345 339 327 301 151 260 212 211 218 228 241 274 263 240 258 287 275 260 266 254 221 251 251 293 329 308 307 316 320 327 329 331 168 149
147 144 136 130 127 207 228 146 97 104 204 332 318 24 226 275 147 197 208 215 219 232 246 251 239 240 269 279 282 253 260 273 266 274 294 297 300 293 318 328 344 130 161 148
150 148 139 130 120 316 5 20 50 107 142 345 294 271 129 349 159 182 200 209 220 239 252 237 260 263 209 262 259 262 287 289 280 285 301 296 331 315 318 346 59 111 119 122
150 145 132 127 144 186 165 120 194 352 12 260 322 308 269 177 233 216 169 163 204 213 249 258 251 245 215 258 251 262 271 302 299 292 293 300 308 330 3 43 130 125 120 124
143 134 128 146 202 161 71 34 143 202 292 320 309 317 349 325 264 307 196 162 230 234 227 239 246 230 231 257 304 306 302 292 299 303 302 300 298 358 21 51 119 121 132 136
132 162 196 103 115 73 136 317 157 139 201 250 264 321 276 321 310 306 244 187 262 268 209 198 240 263 302 311 296 290 285 281 282 280 281 288 288 347 358 358 106 138 149 142
189 176 152 76 315 202 179 191 234 170 226 199 241 264 292 135 271 303 285 312 293 276 62 273 252 246 297 317 306 322 322 300 276 257 261 267 277 295 323 353 15 141 150 158
127 100 104 182 185 126 246 209 151 220 279 164 229 255 223 250 253 267 212 286 312 274 17 268 268 351 321 320 328 329 342 336 299 245 239 244 252 262 287 313 2 188 163 156
100 109 96 211 159 201 223 187 199 219 201 203 226 251 246 191 219 264 297 268 249 321 240 275 31 321 329 324 329 343 359 11 16 2 244 251 254 266 260 280 339 197 182 175
158 170 183 221 178 232 205 233 47 56 274 305 303 270 249 209 232 255 249 266 283 264 271 358 309 321 338 323 333 348 358 9 19 29 41 22 319 308 306 274 291 189 206 194
172 181 206 207 211 185 161 168 266 256 289 285 277 245 250 234 239 202 286 250 254 250 311 342 347 335 332 316 343 349 356 6 15 21 30 34 21 19 23 32 322 259 158 188
172 217 189 195 201 210 210 223 254 21 301 253 238 269 241 228 230 172 218 256 247 71 34 68 33 9 350 326 334 345 350 358 12 21 27 36 42 33 32 47 37 357 277 190
175 213 218 208 280 191 169 190 140 132 296 344 309 263 233 305 230 202 211 230 315 295 149 164 167 75 8 323 328 343 345 346 2 13 18 17 21 33 35 27 16 2 338 262